Regional Weather Roundup
Issued by NWS

Home | Current Version | Previous Version | Text Only | Print | Product List | Glossary Off
Versions: 1 2 3 4 5 6 7 8 9 10 11 12 13 14 15 16 17 18 19 20 21 22 23 24 25 26 27 28 29 30 31 32 33 34 35 36 37 38 39 40 41 42 43 44 45 46 47 48 49 50

055
ASUS43 KMPX 212110
RWRMN
WEATHER ROUNDUP FOR MINNESOTA
NATIONAL WEATHER SERVICE TWIN CITIES/CHANHASSEN MN
400 PM CDT SAT OCT 21 2017


NOTE: "FAIR" INDICATES FEW OR NO CLOUDS BELOW 12,000 FEET WITH NO
SIGNIFICANT WEATHER AND/OR OBSTRUCTIONS TO VISIBILITY. N/A MEANS
CURRENT SKY AND/OR WEATHER CONDITIONS ARE NOT AVAILABLE.

MNZ060>063-068>070-212200-
   Twin Cities Metro

CITY           SKY/WX    TMP DP  RH WIND       PRES   REMARKS
TWIN CITIES    CLOUDY    68  61  78 S23G38    29.65F
ST PAUL        CLOUDY    66  61  84 S20G28    29.66F
CRYSTAL        CLOUDY    67  58  72 S17G26    29.62F
BLAINE         CLOUDY    68  63  83 S20G29    29.64F
LAKEVILLE      PTSUNNY   66  61  82 S17G26    29.66F
EDEN PRAIRIE   CLOUDY    69  61  75 S26G35    29.62F
SOUTH ST PAUL  CLOUDY    67  61  80 S16G24    29.67F
LAKE ELMO      CLOUDY    64  61  88 S16G23    29.69F
$$
MNZ001>005-007-008-013>017-022>024-027-028-212200-
   Northwest Minnesota

CITY           SKY/WX    TMP DP  RH WIND       PRES   REMARKS
BEMIDJI        DRIZZLE   60  60  97 SE6       29.50F
HALLOCK        MOSUNNY   64  41  42 W18G25    29.43F
ROSEAU         CLOUDY    63  46  55 S16       29.46R
WARROAD        PTSUNNY   63  57  82 S10       29.46R
CROOKSTON      CLOUDY    63  43  48 W12       29.50F
FOSSTON        DRIZZLE   52  46  82 SW8       29.54R
DETROIT LAKES  LGT RAIN  52  48  87 CALM      29.57R
MOORHEAD       CLOUDY    57  46  67 W12       29.56R
PARK RAPIDS    CLOUDY    65  61  87 S15       29.50S
MAHNOMEN       CLOUDY    52  49  88 SW3       29.53F
$$
MNZ006-009>011-018-025>026-212200-
   North Central Minnesota

CITY           SKY/WX    TMP DP  RH WIND       PRES   REMARKS
BAUDETTE       CLOUDY    64  58  80 S14G30    29.48R
FLAG ISLAND    DRIZZLE   55  52  88 S12       29.44S
INTL FALLS     CLOUDY    63  56  78 S6G16     29.53S
WASKISH        CLOUDY    63  59  88 S8G16     29.51R
BIG FORK       CLOUDY    63  57  82 S12       29.55S
LONGVILLE      CLOUDY    63  61  94 S14       29.55R
GRAND RAPIDS   LGT RAIN  60  59  96 S18G24    29.58F FOG
CRANE LAKE     CLOUDY    61  57  88 S7        29.60R
ORR            CLOUDY    61  55  82 S8G17     29.56R
COOK           CLOUDY    61  57  88 S7        29.59S FOG
WALKER         CLOUDY    60  59  96 SE10      29.52S
$$
MNZ012-019>021-037-212200-
   Northeast Minnesota

CITY           SKY/WX    TMP DP  RH WIND       PRES   REMARKS
DULUTH         DRIZZLE   59  59 100 S15       29.65F FOG
ELY            CLOUDY    59  57  94 S14G20    29.63S
HIBBING        CLOUDY    59  58  96 S12G22    29.60S FOG
EVELETH        CLOUDY    60  60 100 S12G17    29.62S FOG
DULUTH HARBOR  CLOUDY    63  61  94 S14       29.65S
TWO HARBORS    CLOUDY    63  57  82 S7        29.65F
SILVER BAY     CLOUDY    61  59  94 S7        29.66F FOG
GRAND MARAIS     N/A     55  55 100 NE3       29.70F
G MARAIS ARPRT DRZL/FOG  55  52  88 S7G16     29.73S VSB 1/4
$$
MNZ029>031-032-039>041-046>048-054>057-064-212200-
   West Central Minnesota

CITY           SKY/WX    TMP DP  RH WIND       PRES   REMARKS
FERGUS FALLS   CLOUDY    55  48  76 W8        29.58R
WHEATON        MOSUNNY   57  45  62 W10G18    29.62R
MORRIS         CLOUDY    57  46  67 NW16      29.61R
ALEXANDRIA     CLOUDY    55  48  77 W17       29.60R
ELBOW LAKE     CLOUDY    54  48  80 NW7       29.60R
WADENA         LGT RAIN  55  50  82 W15G22    29.55R
GLENWOOD       CLOUDY    55  48  76 W14G25    29.60R
APPLETON       CLOUDY    59  46  63 W17G24    29.61R
BENSON         CLOUDY    57  48  72 NW16      29.63R
ORTONVILLE     CLOUDY    57  45  62 W20G29    29.62R
MADISON        CLOUDY    61  46  59 W14G25    29.63R
WILLMAR        PTSUNNY   57  52  82 W14G22    29.61R
$$
MNZ033>034-036-042>043-049>051-058-059-212200-
   Central Minnesota

CITY           SKY/WX    TMP DP  RH WIND       PRES   REMARKS
ST CLOUD       CLOUDY    65  62  90 S16G26    29.59R
SAUK CENTRE    CLOUDY    60  57  89 W21       29.57R
PAYNESVILLE    LGT RAIN  67  62  83 S12G21    29.56R
AITKIN         CLOUDY    59  57  94 S18G24    29.57S FOG
PINE RIVER     CLOUDY    61  57  88 S13G18    29.59S
BRAINERD       CLOUDY    63  60  90 S13       29.57S
STAPLES        LGT RAIN  64  61  88 SE12      29.52S
LONG PRAIRIE   TSTM      63  61  94 E14       29.54R
LITTLE FALLS   CLOUDY    64  55  72 SE10G17   29.58R
LITCHFIELD     CLOUDY    68  63  83 SE9G16    29.58S
BUFFALO        CLOUDY    67  60  77 S12G20    29.62R
MAPLE LAKE     CLOUDY    67  63  85 S7G17     29.62R
HUTCHINSON     CLOUDY    69  63  82 SE9G21    29.59F
$$
MNZ037-044-045-052-053-212200-
   East Central Minnesota

CITY           SKY/WX    TMP DP  RH WIND       PRES   REMARKS
PRINCETON      CLOUDY    66  63  88 SE12      29.61S
MORA           CLOUDY    59  59 100 S13       29.64F
CAMBRIDGE      CLOUDY    64  64 100 SE9G16    29.63F
RUSH CITY      CLOUDY    64  59  84 S12G22    29.65S
MOOSE LAKE     CLOUDY    61  59  94 S8        29.62F FOG
HINCKLEY       CLOUDY    63  61  94 SE10G18   29.64F
CLOQUET        CLOUDY    61  57  88 S8G16     29.65R FOG
MCGREGOR       CLOUDY    61  59  94 S14G22    29.61S
$$
MNZ071>073-080-081-089-090-097-098-212200-
   Southwest Minnesota

CITY           SKY/WX    TMP DP  RH WIND       PRES   REMARKS
MONTEVIDEO     CLOUDY    59  48  67 NW12G20   29.63R
GRANITE FALLS  CLOUDY    60  51  73 W17G24    29.65R
CANBY          CLOUDY    58  44  58 NW23G31   29.66R
MARSHALL       CLOUDY    58  46  64 W18G29    29.66R
REDWOOD FALLS  CLOUDY    59  51  75 W22       29.61R
OLIVIA         CLOUDY    59  54  82 W12       29.60R
PIPESTONE      PTSUNNY   55  43  62 NW20G29   29.69R
JACKSON        CLOUDY    61  54  77 W22G29    29.68R
TRACY          CLOUDY    58  50  74 W14G22    29.66R
SLAYTON        CLOUDY    56  46  68 W18G29    29.68R
$$
MNZ065>067-074>077-082>085-091>093-212200-
   South Central Minnesota

CITY           SKY/WX    TMP DP  RH WIND       PRES   REMARKS
MANKATO        CLOUDY    68  61  78 S18G29    29.63F
NEW ULM        CLOUDY    70  61  73 S22G29    29.59F
ST JAMES       PTSUNNY   70  61  73 SE21G26   29.62S
FAIRMONT       PTSUNNY   69  62  78 S20G32    29.64R
GLENCOE        CLOUDY    69  62  77 S17G26    29.60S
FARIBAULT      MOSUNNY   68  61  77 S22G33    29.68F
OWATONNA       MOSUNNY   66  61  82 SE20G32   29.70F
WASECA         MOSUNNY   68  59  73 SE20G28   29.68F
$$
MNZ078>079-086>088-094>096-212200-
   Southeast Minnesota

CITY           SKY/WX    TMP DP  RH WIND       PRES   REMARKS
ROCHESTER      CLOUDY    66  59  78 S22G29    29.77S
RED WING       CLOUDY    68  57  68 S17       29.72R
STANTON        MOSUNNY   69  60  74 S24G31    29.67F
DODGE CENTER   CLOUDY    64  57  77 S18G26    29.74F
WINONA         CLOUDY    70  59  68 S7G20     29.80R
AUSTIN         CLOUDY    66  57  72 S13G21    29.75S
PRESTON        CLOUDY    66  57  72 S16G22    29.80S
$$
ABBREVIATIONS USED IN REMARKS
   TC - TEMPERATURES IN CELSIUS
  WCI - WIND CHILL INDEX
   HX - HEAT INDEX
  VSB - VISIBILITY
$$




USA.gov is the U.S. government's official web portal to all federal, state and local government web resources and services.